Regional Weather Roundup
Issued by NWS Little Rock, AR

Home | Current Version | Previous Version | Text Only | Print | Product List | Glossary Off
Versions: 1 2 3 4 5 6 7 8 9 10 11 12 13 14 15 16 17 18 19 20 21 22 23 24 25 26 27 28 29 30 31 32 33 34 35 36 37 38 39 40 41 42 43 44 45 46 47 48 49 50

000
ASUS44 KLZK 230905
RWRLZK

WEATHER ROUNDUP FOR ARKANSAS
NATIONAL WEATHER SERVICE LITTLE ROCK AR
400 AM CDT TUE SEP 23 2014

NOTE: "FAIR" INDICATES FEW OR NO CLOUDS BELOW 12,000 FEET WITH NO
SIGNIFICANT WEATHER AND/OR OBSTRUCTIONS TO VISIBILITY.

ARZ001-003-010-029-231000-
NORTHWEST ARKANSAS

CITY           SKY/WX    TMP DP  RH WIND       PRES   REMARKS
FAYETTEVILLE   CLEAR     48  48 100 CALM      30.23S
FORT SMITH     CLEAR     57  54  89 NE5       30.21S
HARRISON       CLEAR     52  51  97 CALM      30.25S
BENTONVILLE    CLEAR     54  48  82 SE7       30.23F
ROGERS         CLEAR     56  51  84 SE6       30.24S
SILOAM SPGS    CLEAR     54  46  76 E6        30.24S
HIGHFILL       CLEAR     52  50  93 CALM      30.23S
$$

ARZ004-005-016-231000-
NORTH CENTRAL ARKANSAS

CITY           SKY/WX    TMP DP  RH WIND       PRES   REMARKS
BATESVILLE     CLEAR     52  48  87 NW6       30.24S
FLIPPIN        CLOUDY    48  43  81 CALM      30.25S VSB 1/4
MTN HOME       CLEAR     51  51 100 CALM      30.25R
$$

ARZ040-041-231000-
WEST CENTRAL ARKANSAS

CITY           SKY/WX    TMP DP  RH WIND       PRES   REMARKS
MENA             N/A     50  50 100 CALM        N/A
MOUNT IDA      CLEAR     52  50  93 CALM      30.20S
$$

ARZ009-017-025-026-028-231000-
NORTHEAST ARKANSAS

CITY           SKY/WX    TMP DP  RH WIND       PRES   REMARKS
CORNING          N/A     50  48  93 N3        30.25S
JONESBORO      CLEAR     53  49  86 NE6       30.23S
NEWPORT        PTCLDY    51  49  93 N13       30.24S
WALNUT RIDGE   CLEAR     52  46  82 N5        30.24S
BLYTHEVILLE    CLEAR     50  48  93 N3        30.23S
$$

ARZ022-023-033-042-044-231000-
CENTRAL ARKANSAS

CITY           SKY/WX    TMP DP  RH WIND       PRES   REMARKS
LITTLE ROCK    CLEAR     55  48  77 NE7       30.21S
N LITTLE ROCK    N/A     57  51  78 NE7       30.21S
JACKSONVILLE   CLEAR     50  48  91 CALM      30.21F
SEARCY         CLEAR     55  48  77 N7        30.23S
HOT SPRINGS    CLEAR     55  50  83 CALM      30.21S
RUSSELLVILLE   CLEAR     54  52  93 CALM      30.22S
CLINTON        FAIR      48  48 100 CALM      30.24F
$$

ARZ036-231000-
EAST ARKANSAS

CITY           SKY/WX    TMP DP  RH WIND       PRES   REMARKS
WEST MEMPHIS   CLEAR     53  49  86 N5        30.21R
$$

ARZ050-053-066-070-073-231000-
SOUTHWEST ARKANSAS

CITY           SKY/WX    TMP DP  RH WIND       PRES   REMARKS
ARKADELPHIA    FAIR      54  53  96 CALM      30.20S
CAMDEN         CLEAR     50  48  93 CALM      30.18S FOG
TEXARKANA      CLEAR     56  55  97 N3        30.19S
EL DORADO      CLEAR     53  51  93 N3        30.17F
DE QUEEN       CLEAR     54  53  97 CALM      30.19R
$$

ARZ056-057-069-231000-
SOUTHEAST ARKANSAS

CITY           SKY/WX    TMP DP  RH WIND       PRES   REMARKS
PINE BLUFF     CLEAR     57  49  74 NE8       30.19F
STUTTGART      CLEAR     55  46  71 NE8       30.21S
MONTICELLO     CLEAR     55  50  83 NE8       30.17S

$$





USA.gov is the U.S. government's official web portal to all federal, state and local government web resources and services.